GW6913 Weather Reports


time (UTC)temp
C
wind
direction
speed
KPH
gust
KPH
rain 1hr
cm
rain 24hr
cm
rain mn
cm
humidity
%
barometer
mb
20260906103320 18 45 1.6 3.2 0.00 0.00 0.00 90 1018.0
20260906102817 18 35 1.6 4.8 0.00 0.00 0.00 90 1018.0
20260906102315 18 88 1.6 1.6 0.00 0.00 0.00 90 1017.8
20260906101811 19 89 3.2 3.2 0.00 0.00 0.00 90 1017.8
20260906101306 19 76 1.6 3.2 0.00 0.00 0.00 90 1017.9
20260906100802 19 100 3.2 9.7 0.00 0.00 0.00 89 1018.2
20260906100300 19 82 1.6 3.2 0.00 0.00 0.00 89 1017.7
20260906095756 19 52 3.2 4.8 0.00 0.00 0.00 89 1017.8
20260906095251 20 138 4.8 8.0 0.00 0.00 0.00 89 1017.9
20260906094750 20 111 0.0 0.0 0.00 0.00 0.00 89 1017.8
20260906094245 20 116 3.2 4.8 0.00 0.00 0.00 89 1017.8
20260906093742 20 275 4.8 4.8 0.00 0.00 0.00 89 1017.8
20260906093237 20 96 6.4 9.7 0.00 0.00 0.00 89 1017.7
20260906092732 20 137 3.2 3.2 0.00 0.00 0.00 90 1018.0
20260906092232 21 46 4.8 8.0 0.00 0.00 0.00 90 1017.9
20260906091728 21 146 1.6 1.6 0.00 0.00 0.00 91 1018.0
20260906091224 21 73 4.8 8.0 0.00 0.00 0.00 92 1017.7
20260906090720 21 66 6.4 8.0 0.00 0.00 0.00 93 1017.9
20260906090219 21 36 4.8 8.0 0.00 0.00 0.00 93 1017.6
20260906085719 21 127 4.8 4.8 0.00 0.00 0.00 93 1017.7
20260906085218 21 67 4.8 9.7 0.00 0.00 0.00 94 1017.7
20260906084713 21 35 6.4 12.9 0.00 0.00 0.00 94 1017.4
20260906084212 21 37 6.4 9.7 0.00 0.00 0.00 94 1017.4
20260906083708 21 188 3.2 3.2 0.00 0.00 0.00 95 1017.5
20260906083203 21 144 6.4 11.3 0.00 0.00 0.00 95 1017.7
20260906082658 21 43 3.2 4.8 0.00 0.00 0.00 96 1017.5
20260906082153 21 352 4.8 4.8 0.00 0.00 0.00 96 1017.5
20260906081649 21 23 4.8 4.8 0.00 0.00 0.00 96 1017.5
20260906081144 21 44 1.6 3.2 0.00 0.00 0.00 96 1017.4
20260906080640 21 99 3.2 8.0 0.00 0.00 0.00 96 1017.5
20260906080136 21 22 3.2 8.0 0.00 0.00 0.00 96 1017.3
20260906075636 21 32 3.2 4.8 0.00 0.00 0.00 96 1017.4
20260906075130 21 43 3.2 3.2 0.00 0.00 0.00 96 1017.2
20260906074626 21 301 3.2 4.8 0.00 0.00 0.00 96 1017.5
20260906074125 21 69 1.6 1.6 0.00 0.00 0.00 96 1017.3
20260906073620 21 54 3.2 4.8 0.00 0.00 0.00 96 1017.3
20260906073115 21 81 4.8 8.0 0.00 0.00 0.00 96 1017.3
20260906072610 21 26 4.8 4.8 0.00 0.00 0.00 96 1017.5
20260906072107 21 39 4.8 8.0 0.00 0.00 0.00 96 1017.4
20260906071603 21 46 6.4 8.0 0.00 0.00 0.00 96 1017.3
20260906071103 21 7 4.8 4.8 0.00 0.00 0.00 96 1017.5
20260906070559 21 72 4.8 4.8 0.00 0.00 0.00 96 1017.4
20260906070054 21 107 1.6 3.2 0.00 0.00 0.00 96 1017.4
20260906065554 21 94 1.6 3.2 0.00 0.00 0.00 96 1017.4
20260906065050 21 340 0.0 0.0 0.00 0.00 0.00 96 1017.4
20260906064546 21 108 1.6 1.6 0.00 0.00 0.00 95 1017.5
20260906064040 21 160 0.0 1.6 0.00 0.00 0.00 95 1017.5
20260906063536 21 91 0.0 0.0 0.00 0.00 0.00 95 1017.5
20260906063032 21 128 0.0 0.0 0.00 0.00 0.00 95 1017.5
20260906062527 21 137 0.0 0.0 0.00 0.00 0.00 95 1017.7
20260906062021 22 133 0.0 0.0 0.00 0.00 0.00 95 1017.5
20260906061517 22 131 1.6 1.6 0.00 0.00 0.00 95 1017.7
20260906061016 22 132 1.6 3.2 0.00 0.00 0.00 95 1017.7
20260906060513 22 76 0.0 1.6 0.00 0.00 0.00 95 1017.5
20260906060010 22 60 4.8 4.8 0.00 0.00 0.00 95 1017.6
20260906055505 22 64 1.6 1.6 0.00 0.00 0.00 94 1017.4
20260906055001 22 23 3.2 3.2 0.00 0.00 0.00 94 1017.6
20260906054501 22 97 3.2 3.2 0.00 0.00 0.00 94 1017.3
20260906053956 22 115 1.6 1.6 0.00 0.00 0.00 94 1017.3
20260906053452 22 39 3.2 4.8 0.00 0.00 0.00 94 1017.5
20260906052948 22 21 1.6 1.6 0.00 0.00 0.00 94 1017.6
20260906052444 22 333 3.2 4.8 0.00 0.00 0.00 94 1017.6
20260906051940 22 294 1.6 1.6 0.00 0.00 0.00 93 1017.7
20260906051436 22 93 3.2 3.2 0.00 0.00 0.00 93 1017.5
20260906050931 22 36 1.6 3.2 0.00 0.00 0.00 93 1017.7
20260906050431 22 12 1.6 3.2 0.00 0.00 0.00 93 1017.4
20260906045930 22 118 0.0 1.6 0.00 0.00 0.00 93 1017.5
20260906045429 22 36 0.0 1.6 0.00 0.00 0.00 93 1017.5
20260906044926 22 49 3.2 3.2 0.00 0.00 0.00 92 1017.4
20260906044426 22 113 1.6 1.6 0.00 0.00 0.00 92 1017.4
20260906043921 22 58 4.8 8.0 0.00 0.00 0.00 92 1017.4
20260906043417 22 151 0.0 1.6 0.00 0.00 0.00 92 1017.1
20260906042913 22 69 1.6 3.2 0.00 0.00 0.00 92 1017.3
20260906042412 22 328 3.2 3.2 0.00 0.00 0.00 92 1017.0
20260906041907 22 42 1.6 3.2 0.00 0.00 0.00 92 1017.2
20260906041403 22 350 0.0 0.0 0.00 0.00 0.00 92 1017.2
20260906040902 22 23 3.2 4.8 0.00 0.00 0.00 91 1017.4
20260906040358 22 18 4.8 4.8 0.00 0.00 0.00 91 1017.4
20260906035853 22 359 3.2 4.8 0.00 0.05 0.05 91 1017.5
20260906035348 22 294 3.2 3.2 0.00 0.05 0.05 91 1017.2
20260906034844 22 322 4.8 8.0 0.00 0.05 0.05 90 1017.4
20260906034344 22 106 1.6 1.6 0.00 0.05 0.05 90 1017.4
20260906033840 22 31 4.8 8.0 0.00 0.05 0.05 90 1017.5
20260906033339 23 37 4.8 8.0 0.00 0.05 0.05 90 1017.4
20260906032836 23 345 4.8 4.8 0.00 0.05 0.05 89 1017.3
20260906032332 23 7 3.2 3.2 0.00 0.05 0.05 89 1017.3
20260906031832 23 273 3.2 3.2 0.00 0.05 0.05 89 1017.3
20260906031327 23 1 4.8 4.8 0.00 0.05 0.05 89 1017.5
20260906030827 23 292 3.2 4.8 0.00 0.05 0.05 89 1017.4
20260906030323 23 352 3.2 4.8 0.00 0.05 0.05 89 1017.4
20260906025823 23 343 4.8 8.0 0.00 0.05 0.05 89 1017.7
20260906025317 23 24 3.2 3.2 0.00 0.05 0.05 89 1017.5
20260906024816 23 281 6.4 8.0 0.00 0.05 0.05 88 1017.5
20260906024315 23 353 1.6 3.2 0.00 0.05 0.05 88 1017.5
20260906023811 24 203 3.2 4.8 0.00 0.05 0.05 88 1017.4
20260906023306 24 109 1.6 1.6 0.00 0.05 0.05 87 1017.1
20260906022801 24 308 4.8 4.8 0.00 0.05 0.05 87 1017.5
20260906022257 24 184 0.0 0.0 0.00 0.05 0.05 87 1017.3
20260906021753 24 50 1.6 1.6 0.00 0.05 0.05 87 1017.2
20260906021251 24 340 1.6 1.6 0.00 0.05 0.05 86 1017.3
20260906020746 25 23 3.2 4.8 0.00 0.05 0.05 85 1016.9
20260906020241 25 343 4.8 4.8 0.00 0.05 0.05 85 1016.9
20260906015741 25 51 1.6 3.2 0.00 0.05 0.05 84 1016.8
20260906015240 25 51 3.2 3.2 0.00 0.05 0.05 83 1017.0
20260906014739 25 112 0.0 1.6 0.00 0.05 0.05 82 1016.9
20260906014235 25 91 1.6 1.6 0.00 0.05 0.05 82 1016.8
20260906013731 26 134 1.6 1.6 0.00 0.05 0.05 81 1016.9
20260906013231 26 333 1.6 3.2 0.00 0.05 0.05 80 1016.9
20260906012726 26 91 1.6 3.2 0.00 0.05 0.05 80 1017.0
20260906012221 26 5 4.8 4.8 0.00 0.05 0.05 79 1016.9
20260906011716 26 35 4.8 8.0 0.00 0.05 0.05 79 1017.0
20260906011211 26 45 1.6 4.8 0.00 0.05 0.05 78 1016.7
20260906010707 27 49 3.2 4.8 0.00 0.05 0.05 77 1016.6
20260906010203 27 338 8.0 11.3 0.00 0.05 0.05 77 1016.6
20260906005702 27 344 3.2 3.2 0.00 0.05 0.05 77 1016.6
20260906005202 27 53 3.2 3.2 0.00 0.05 0.05 77 1016.5
20260906004701 27 24 6.4 8.0 0.00 0.05 0.05 77 1016.5
20260906004156 27 35 8.0 12.9 0.00 0.05 0.05 77 1016.4
20260906003652 27 345 3.2 3.2 0.00 0.05 0.05 77 1016.4
20260906003148 27 45 6.4 9.7 0.00 0.05 0.05 77 1016.4
20260906002647 27 359 4.8 9.7 0.00 0.05 0.05 77 1016.5
20260906002142 28 218 4.8 8.0 0.00 0.05 0.05 76 1016.6
20260906001637 28 348 6.4 8.0 0.00 0.05 0.05 75 1016.4
20260906001137 28 31 6.4 8.0 0.00 0.05 0.05 75 1016.4
20260906000633 28 3 4.8 8.0 0.00 0.05 0.05 75 1016.5
20260906000128 28 13 3.2 4.8 0.00 0.05 0.05 75 1016.4
20260905235627 29 56 8.0 11.3 0.00 0.05 0.05 75 1016.4
20260905235123 30 13 8.0 12.9 0.00 0.05 0.05 74 1016.3
20260905234618 30 39 3.2 3.2 0.00 0.05 0.05 73 1016.5
20260905234114 30 42 8.0 12.9 0.00 0.05 0.05 73 1016.3
20260905233613 30 1 8.0 14.5 0.00 0.05 0.05 71 1016.2
20260905233108 30 68 1.6 3.2 0.00 0.05 0.05 71 1016.3
20260905232603 30 92 0.0 1.6 0.00 0.05 0.05 70 1016.3
20260905232059 31 102 0.0 0.0 0.00 0.05 0.05 70 1016.3
20260905231554 31 7 1.6 1.6 0.00 0.05 0.05 68 1016.3
20260905231050 31 144 3.2 3.2 0.00 0.05 0.05 69 1016.2
20260905230549 31 162 0.0 1.6 0.00 0.05 0.05 69 1016.2
20260905230049 32 118 1.6 1.6 0.00 0.05 0.05 69 1016.2
20260905225548 32 349 4.8 8.0 0.00 0.05 0.05 68 1016.2
20260905225043 32 356 6.4 8.0 0.00 0.05 0.05 67 1016.1
20260905224538 32 261 6.4 9.7 0.00 0.05 0.05 67 1016.0
20260905224037 32 297 4.8 4.8 0.00 0.05 0.05 66 1016.1
20260905223535 32 240 3.2 3.2 0.00 0.05 0.05 66 1016.2
20260905223031 33 334 3.2 3.2 0.00 0.05 0.05 65 1016.1
20260905222530 33 216 1.6 1.6 0.00 0.05 0.05 64 1015.9
20260905222026 33 355 4.8 4.8 0.00 0.05 0.05 64 1015.9
20260905221522 33 342 3.2 3.2 0.00 0.05 0.05 63 1015.9
20260905221018 33 4 3.2 3.2 0.00 0.05 0.05 61 1016.1
20260905220514 34 354 1.6 3.2 0.00 0.05 0.05 62 1016.0
20260905220009 33 317 4.8 4.8 0.00 0.05 0.05 61 1015.9
20260905215504 34 307 4.8 8.0 0.00 0.05 0.05 60 1015.9
20260905215000 34 292 4.8 4.8 0.00 0.05 0.05 60 1016.0
20260905214455 34 269 3.2 3.2 0.00 0.05 0.05 60 1015.9
20260905213955 34 290 4.8 4.8 0.00 0.05 0.05 59 1015.8
20260905213451 34 284 3.2 3.2 0.00 0.05 0.05 59 1016.1
20260905212946 34 195 3.2 3.2 0.00 0.05 0.05 61 1015.9
20260905212441 33 177 1.6 3.2 0.00 0.05 0.05 59 1016.0
20260905211940 34 323 1.6 3.2 0.00 0.05 0.05 59 1016.1
20260905211436 34 160 3.2 4.8 0.00 0.05 0.05 59 1015.9
20260905210932 34 4 0.0 0.0 0.00 0.05 0.05 59 1016.1
20260905210432 34 351 3.2 4.8 0.00 0.05 0.05 58 1016.2
20260905205932 34 358 1.6 1.6 0.00 0.05 0.05 58 1016.1
20260905205427 34 316 3.2 3.2 0.00 0.05 0.05 57 1016.2
20260905204925 34 176 0.0 1.6 0.00 0.05 0.05 54 1016.3
20260905204422 34 190 1.6 3.2 0.00 0.05 0.05 52 1015.9
20260905203921 33 329 4.8 4.8 0.00 0.05 0.05 51 1016.3
20260905203416 34 134 1.6 3.2 0.00 0.05 0.05 50 1016.3
20260905202912 33 318 3.2 8.0 0.00 0.05 0.05 53 1016.1
20260905202407 33 155 0.0 0.0 0.00 0.05 0.05 56 1016.4
20260905201903 32 181 3.2 3.2 0.00 0.05 0.05 59 1016.5
20260905201358 31 301 4.8 8.0 0.00 0.05 0.05 65 1016.4
20260905200857 30 145 3.2 3.2 0.00 0.05 0.05 70 1016.7
20260905200353 31 140 1.6 3.2 0.00 0.05 0.05 68 1016.7
20260905195851 31 11 1.6 3.2 0.00 0.05 0.05 65 1016.8
20260905195347 32 167 0.0 1.6 0.00 0.05 0.05 69 1016.9
20260905194843 32 171 0.0 0.0 0.00 0.05 0.05 67 1016.7
20260905194342 32 158 0.0 0.0 0.00 0.05 0.05 66 1017.0
20260905193841 33 114 0.0 0.0 0.00 0.05 0.05 65 1016.8
20260905193336 33 175 0.0 0.0 0.00 0.05 0.05 63 1017.0
20260905192832 33 181 0.0 0.0 0.00 0.05 0.05 63 1016.9
20260905192328 32 180 0.0 1.6 0.00 0.05 0.05 65 1017.0
20260905191827 33 211 4.8 4.8 0.00 0.05 0.05 62 1017.2
20260905191326 34 328 1.6 1.6 0.00 0.05 0.05 58 1017.0
20260905190825 34 216 1.6 1.6 0.00 0.05 0.05 57 1017.1
20260905190324 35 306 1.6 1.6 0.00 0.05 0.05 56 1017.1
20260905185823 35 165 0.0 0.0 0.00 0.05 0.05 55 1016.8
20260905185319 34 183 1.6 3.2 0.00 0.05 0.05 58 1017.1
20260905184818 34 300 1.6 1.6 0.00 0.05 0.05 59 1017.3
20260905184317 33 256 0.0 0.0 0.00 0.05 0.05 60 1017.5
20260905183816 33 178 0.0 0.0 0.00 0.05 0.05 61 1017.3
20260905183311 33 169 3.2 3.2 0.00 0.05 0.05 62 1017.5
20260905182806 32 168 3.2 4.8 0.00 0.05 0.05 61 1017.5
20260905182306 32 165 8.0 8.0 0.00 0.05 0.05 62 1017.6
20260905181801 33 227 1.6 3.2 0.00 0.05 0.05 62 1017.7
20260905181301 32 186 0.0 0.0 0.00 0.05 0.05 63 1017.5
20260905180800 32 171 4.8 8.0 0.00 0.05 0.05 63 1017.6
20260905180255 32 177 1.6 1.6 0.00 0.05 0.05 63 1017.6
20260905175755 32 233 1.6 1.6 0.00 0.05 0.05 65 1017.8
20260905175250 32 164 6.4 8.0 0.00 0.05 0.05 64 1017.6
20260905174745 31 179 3.2 3.2 0.00 0.05 0.05 67 1017.7
20260905174241 32 215 6.4 9.7 0.00 0.05 0.05 64 1017.8
20260905173737 31 160 1.6 3.2 0.00 0.05 0.05 64 1017.4
20260905173232 31 183 4.8 8.0 0.00 0.05 0.05 63 1017.5
20260905172727 31 145 6.4 8.0 0.00 0.05 0.05 65 1017.6
20260905172226 31 214 4.8 4.8 0.00 0.05 0.05 65 1017.7
20260905171722 31 146 6.4 9.7 0.00 0.05 0.05 64 1017.7
20260905171218 31 184 3.2 3.2 0.00 0.05 0.05 64 1017.6
20260905170715 31 123 6.4 8.0 0.00 0.05 0.05 65 1017.8
20260905170215 31 158 4.8 8.0 0.00 0.05 0.05 66 1017.7
20260905165715 30 172 1.6 3.2 0.00 0.05 0.05 66 1017.7
20260905165210 30 149 4.8 4.8 0.00 0.05 0.05 64 1018.1
20260905164705 30 141 6.4 8.0 0.00 0.05 0.05 67 1017.9
20260905164205 30 204 3.2 3.2 0.00 0.05 0.05 66 1017.6
20260905163700 30 155 6.4 8.0 0.00 0.05 0.05 67 1017.8
20260905163157 29 157 8.0 9.7 0.00 0.05 0.05 68 1017.6
20260905162653 30 154 6.4 8.0 0.00 0.05 0.05 66 1017.6
20260905162153 30 179 6.4 8.0 0.00 0.05 0.05 67 1017.9
20260905161648 28 167 3.2 3.2 0.00 0.05 0.05 68 1017.8
20260905161145 28 171 8.0 9.7 0.00 0.05 0.05 68 1017.9
20260905160644 28 149 6.4 8.0 0.00 0.05 0.05 67 1017.7
20260905160143 29 207 9.7 12.9 0.00 0.05 0.05 65 1017.7
20260905155638 29 128 6.4 9.7 0.00 0.05 0.05 65 1017.6
20260905155138 29 155 9.7 11.3 0.00 0.05 0.05 67 1017.8
20260905154637 28 165 8.0 8.0 0.00 0.05 0.05 67 1017.9
20260905154133 28 181 8.0 9.7 0.00 0.05 0.05 66 1017.8
20260905153629 28 173 11.3 12.9 0.00 0.05 0.05 67 1017.8
20260905153124 28 137 11.3 12.9 0.00 0.05 0.05 68 1017.8
20260905152619 28 181 4.8 8.0 0.00 0.05 0.05 69 1017.6
20260905152113 28 100 9.7 11.3 0.00 0.05 0.05 69 1017.6
20260905151609 28 161 11.3 16.1 0.00 0.05 0.05 71 1017.5
20260905151104 27 151 8.0 12.9 0.00 0.05 0.05 71 1017.7
20260905150559 27 157 11.3 12.9 0.00 0.05 0.05 70 1017.8
20260905150057 27 174 11.3 14.5 0.00 0.05 0.05 71 1018.1
20260905145556 27 127 11.3 14.5 0.00 0.05 0.05 71 1017.9
20260905145055 27 167 14.5 16.1 0.00 0.05 0.05 70 1017.9
20260905144551 27 185 9.7 12.9 0.00 0.05 0.05 72 1017.8
20260905144050 27 129 11.3 14.5 0.00 0.05 0.05 72 1017.7
20260905143549 27 142 9.7 11.3 0.00 0.05 0.05 73 1017.8
20260905143044 27 149 9.7 12.9 0.00 0.05 0.05 74 1017.6
20260905142543 27 166 4.8 8.0 0.00 0.05 0.05 76 1017.5
20260905142039 26 144 8.0 9.7 0.00 0.05 0.05 77 1017.3
20260905141538 26 192 8.0 11.3 0.00 0.05 0.05 78 1017.4
20260905141036 26 178 8.0 9.7 0.00 0.05 0.05 81 1017.6
20260905140535 26 156 8.0 12.9 0.00 0.05 0.05 84 1017.5
20260905140034 26 155 12.9 14.5 0.00 0.05 0.05 84 1017.5
20260905135531 26 127 9.7 14.5 0.00 0.05 0.05 84 1017.4
20260905135031 26 156 6.4 9.7 0.00 0.05 0.05 84 1017.2
20260905134526 26 143 11.3 14.5 0.00 0.05 0.05 84 1017.6
20260905134024 26 92 8.0 11.3 0.00 0.05 0.05 86 1017.2
20260905133520 26 135 14.5 20.9 0.00 0.05 0.05 86 1017.4
20260905133020 25 127 8.0 11.3 0.00 0.05 0.05 89 1017.5
20260905132519 25 116 8.0 11.3 0.00 0.05 0.05 89 1017.4
20260905132014 25 172 9.7 11.3 0.00 0.05 0.05 90 1017.4
20260905131515 25 129 12.9 14.5 0.00 0.05 0.05 93 1017.3
20260905131010 25 98 4.8 4.8 0.00 0.05 0.05 95 1017.3
20260905130509 25 124 0.0 0.0 0.00 0.05 0.05 94 1017.0
20260905130004 25 121 0.0 0.0 0.00 0.05 0.05 93 1017.1
20260905125458 25 135 0.0 0.0 0.00 0.05 0.05 93 1017.0
20260905124954 25 135 0.0 0.0 0.00 0.05 0.05 92 1016.9
20260905124451 25 135 0.0 0.0 0.00 0.05 0.05 92 1016.9
20260905123946 25 135 0.0 0.0 0.00 0.05 0.05 93 1016.8
20260905123442 25 135 0.0 0.0 0.00 0.05 0.05 93 1017.2
20260905122942 25 140 0.0 1.6 0.00 0.05 0.05 93 1016.8
20260905122442 25 171 0.0 0.0 0.00 0.05 0.05 95 1016.7
20260905121938 24 180 0.0 0.0 0.00 0.05 0.05 96 1016.7
20260905121433 24 189 0.0 0.0 0.00 0.05 0.05 96 1016.7
20260905120932 23 185 0.0 0.0 0.00 0.05 0.05 97 1016.4
20260905120427 23 178 0.0 0.0 0.00 0.05 0.05 97 1016.6
20260905115922 23 192 0.0 0.0 0.00 0.05 0.05 97 1016.4
20260905115421 23 193 0.0 0.0 0.00 0.05 0.05 97 1016.4
20260905114917 23 204 0.0 0.0 0.00 0.05 0.05 97 1016.2
20260905114416 23 208 0.0 0.0 0.00 0.05 0.05 97 1016.6
20260905113915 23 159 0.0 0.0 0.00 0.05 0.05 97 1016.6
20260905113411 23 144 0.0 0.0 0.00 0.05 0.05 97 1016.3
20260905112906 23 180 0.0 0.0 0.00 0.05 0.05 97 1016.5
20260905112401 23 151 0.0 0.0 0.13 0.05 0.05 97 1016.4
20260905111856 23 151 0.0 0.0 0.30 0.05 0.05 97 1016.4
20260905111356 22 163 0.0 0.0 0.18 0.03 0.03 97 1016.4
20260905110856 22 165 0.0 0.0 0.00 0.00 0.00 97 1016.6
20260905110350 22 168 0.0 0.0 0.00 0.00 0.00 97 1016.4
20260905105845 22 181 0.0 0.0 0.00 0.00 0.00 97 1016.3
20260905105345 22 151 0.0 0.0 0.00 0.00 0.00 97 1016.7
20260905104844 22 197 0.0 0.0 0.00 0.00 0.00 97 1016.3
20260905104341 22 193 0.0 0.0 0.00 0.00 0.00 97 1016.4
20260905103841 22 165 0.0 0.0 0.00 0.00 0.00 97 1016.5